Location: Unspecified
(0.0000°N, 0.0000°E)
Time: 01:48:51
(UTC+02:00)

USA 116 - Visible Passes

Search period start: 01 October 2016 00:00
Search period end: 11 October 2016 00:00
Orbit: 405 x 834 km, 97.9° (Epoch: 18 November)

Date Brightness Start Highest point End Pass type
(mag) Time Alt. Az. Time Alt. Az. Time Alt. Az.
01 Oct 5.0 06:39:29 10° SSE 06:44:49 62° ENE 06:49:51 10° N visible
02 Oct 4.4 06:53:18 10° SSE 06:58:41 89° WSW 07:03:45 10° NNW visible
03 Oct 4.5 07:07:15 10° S 07:12:32 60° WSW 07:17:30 10° NNW visible
04 Oct 7.4 05:48:27 10° ESE 05:50:44 13° E 05:52:58 10° NE visible
04 Oct 4.9 07:21:25 10° S 07:26:23 40° WSW 07:31:03 10° NW visible
05 Oct 7.0 06:00:58 10° SE 06:04:38 19° E 06:08:06 10° NE visible
06 Oct 6.4 06:14:04 10° SE 06:18:31 28° E 06:22:40 10° NNE visible
07 Oct 5.6 06:27:30 10° SSE 06:32:25 42° E 06:36:56 10° N visible
08 Oct 4.8 06:41:07 10° SSE 06:46:18 63° ENE 06:50:59 10° N visible
09 Oct 4.3 06:54:56 10° S 07:00:09 86° W 07:04:51 10° NNW visible
10 Oct 4.4 07:08:55 10° S 07:13:59 56° WSW 07:18:33 10° NNW visible
